DW4139 Weather Reports


time (UTC)temp
C
wind
direction
speed
KPH
gust
KPH
rain 1hr
cm
rain 24hr
cm
rain mn
cm
humidity
%
barometer
mb
20260506073404 8 202 0.0 0.0 0.00 1.14 0.10 91 1005.0
20260506072904 8 202 0.0 0.0 0.00 1.14 0.10 91 1005.4
20260506071904 8 202 0.0 0.0 0.00 1.14 0.10 91 1005.4
20260506071404 8 202 0.0 0.0 0.00 1.14 0.10 91 1005.4
20260506070904 8 202 0.0 0.0 0.00 1.14 0.10 91 1005.4
20260506070404 8 202 0.0 0.0 0.00 1.14 0.10 91 1005.0
20260506062404 8 202 0.0 0.0 0.05 1.14 0.10 91 1005.4
20260506061904 8 202 0.0 0.0 0.05 1.14 0.10 91 1005.4
20260506061404 8 202 0.0 0.0 0.05 1.14 0.10 91 1005.4
20260506060904 8 202 0.0 0.0 0.05 1.14 0.10 91 1005.4
20260506060404 8 202 0.0 0.0 0.05 1.14 0.10 91 1005.4
20260506051404 8 202 0.0 0.0 0.05 1.09 0.05 91 1005.7
20260506050904 8 202 0.0 0.0 0.05 1.09 0.05 91 1005.8
20260506050404 8 202 0.0 0.0 0.05 1.09 0.05 91 1006.0
20260506044404 8 202 0.0 0.0 0.05 1.09 0.05 91 1006.0
20260506043404 8 202 0.0 0.0 0.10 1.09 0.05 91 1006.0
20260506042904 8 202 0.0 0.0 0.10 1.09 0.05 91 1006.0
20260506042404 9 202 0.0 0.0 0.10 1.09 0.05 91 1006.0
20260506041904 9 202 0.0 0.0 0.15 1.09 0.05 91 1006.4
20260506040904 9 202 0.0 0.0 0.10 1.04 0.00 91 1006.4
20260506040405 9 202 0.0 0.0 0.10 1.04 0.00 91 1006.7
20260506035904 9 202 0.0 0.0 0.15 1.04 1.04 91 1006.7
20260506035404 9 202 0.0 0.0 0.15 1.04 1.04 91 1006.7
20260506033904 9 202 0.0 0.0 0.28 1.04 1.04 91 1006.7
20260506033404 10 202 0.0 0.0 0.20 0.99 0.99 91 1006.7
20260506032904 10 202 0.0 0.0 0.20 0.99 0.99 91 1006.7
20260506032404 10 202 0.0 0.0 0.25 0.99 0.99 91 1006.7
20260506031904 10 202 0.0 0.0 0.25 0.99 0.99 91 1006.4
20260506031404 10 202 0.0 0.0 0.25 0.94 0.94 91 1006.4
20260506030904 10 202 0.0 0.0 0.30 0.94 0.94 91 1006.4
20260506030404 10 202 0.0 0.0 0.30 0.94 0.94 91 1006.4
20260506025904 10 202 0.0 0.0 0.30 0.86 0.86 91 1006.0
20260506025404 10 202 0.0 0.0 0.30 0.86 0.86 91 1006.4
20260506024904 10 202 0.0 0.0 0.25 0.81 0.81 91 1006.0
20260506023904 10 180 0.0 0.0 0.20 0.76 0.76 91 1006.0
20260506023404 10 180 0.0 0.0 0.20 0.76 0.76 91 1006.4
20260506022904 10 180 0.0 0.0 0.20 0.76 0.76 91 1006.4
20260506022404 10 180 0.0 0.0 0.15 0.71 0.71 91 1006.4
20260506021904 10 180 0.0 0.0 0.15 0.71 0.71 91 1006.4
20260506020903 10 180 0.0 0.0 0.10 0.61 0.61 90 1006.4
20260506020404 10 180 0.0 0.0 0.10 0.61 0.61 90 1006.4
20260506015904 10 180 0.0 0.0 0.05 0.56 0.56 90 1006.4
20260506015404 10 180 0.0 0.0 0.05 0.56 0.56 90 1006.0
20260506014904 10 158 0.0 0.0 0.05 0.56 0.56 90 1006.0
20260506014404 10 158 0.0 0.0 0.05 0.56 0.56 90 1006.0
20260506013904 10 158 0.0 0.0 0.05 0.56 0.56 90 1005.8
20260506012904 10 158 0.0 0.0 0.10 0.56 0.56 90 1006.0
20260506012405 10 158 0.0 0.0 0.10 0.56 0.56 90 1006.0
20260506011904 10 158 0.0 0.0 0.10 0.56 0.56 90 1005.7
20260506010904 10 158 0.0 0.0 0.05 0.51 0.51 90 1005.7
20260506010405 10 158 0.0 0.0 0.05 0.51 0.51 90 1005.7
20260506005404 10 158 0.0 0.0 0.05 0.51 0.51 90 1005.7
20260506004903 10 158 0.0 0.0 0.05 0.51 0.51 90 1005.7
20260506004404 10 158 0.0 0.0 0.05 0.51 0.51 90 1005.7
20260506003904 10 158 0.0 0.0 0.05 0.51 0.51 90 1005.7
20260506003405 10 158 0.0 0.0 0.05 0.46 0.46 90 1005.7
20260506002904 10 158 0.0 0.0 0.05 0.46 0.46 90 1005.7
20260506002404 10 158 0.0 0.0 0.10 0.46 0.46 90 1005.5
20260506001404 10 158 0.0 0.0 0.15 0.46 0.46 90 1005.4
20260506000904 10 158 0.0 0.0 0.15 0.46 0.46 90 1005.4
20260506000404 10 158 0.0 0.0 0.15 0.46 0.46 90 1005.7
20260505235904 10 158 0.0 0.0 0.20 0.46 0.46 90 1006.0
20260505235404 10 158 0.0 0.0 0.20 0.46 0.46 90 1006.0
20260505234903 10 158 0.0 0.0 0.25 0.46 0.46 90 1006.0
20260505233904 10 158 0.0 0.0 0.25 0.46 0.46 90 1006.4
20260505233403 10 158 0.0 0.0 0.20 0.41 0.41 90 1006.1
20260505232904 10 158 0.0 0.0 0.20 0.41 0.41 90 1005.7
20260505231904 10 248 0.0 0.0 0.10 0.30 0.30 89 1005.7
20260505231404 10 248 0.0 0.0 0.10 0.30 0.30 89 1005.7
20260505230904 10 248 0.0 0.0 0.15 0.30 0.30 89 1006.0
20260505230404 10 248 0.0 0.0 0.15 0.30 0.30 89 1006.0
20260505225904 10 248 0.0 0.0 0.15 0.25 0.25 89 1006.0
20260505225404 10 248 0.0 0.0 0.15 0.25 0.25 89 1006.4
20260505224904 10 248 0.0 0.0 0.10 0.20 0.20 89 1006.4
20260505223904 10 248 0.0 0.0 0.10 0.20 0.20 89 1006.0
20260505223404 10 248 0.0 0.0 0.15 0.20 0.20 89 1005.9
20260505222904 10 248 0.0 0.0 0.15 0.20 0.20 89 1006.0
20260505222403 10 270 0.0 0.0 0.20 0.20 0.20 89 1006.0
20260505221904 10 270 0.0 0.0 0.20 0.20 0.20 89 1006.0
20260505221404 10 270 0.0 0.0 0.20 0.20 0.20 88 1005.7
20260505220904 10 270 0.0 0.0 0.15 0.15 0.15 89 1006.0
20260505220404 10 270 0.0 0.0 0.15 0.15 0.15 88 1006.0
20260505215904 10 270 0.0 0.0 0.10 0.10 0.10 88 1006.0
20260505215404 10 270 0.0 0.0 0.10 0.10 0.10 88 1005.9
20260505214904 10 270 0.0 0.0 0.10 0.10 0.10 88 1005.7
20260505214404 10 270 0.0 0.0 0.10 0.10 0.10 88 1006.0
20260505213904 10 270 1.6 1.6 0.10 0.10 0.10 88 1006.0
20260505213404 10 270 0.0 0.0 0.05 0.05 0.05 88 1005.5
20260505212904 10 270 0.0 0.0 0.05 0.05 0.05 88 1005.7
20260505212404 10 270 0.0 0.0 0.00 0.00 0.00 88 1005.7
20260505211904 10 257 0.0 0.0 0.00 0.00 0.00 88 1005.7
20260505211405 10 248 0.0 0.0 0.00 0.00 0.00 88 1005.7
20260505210904 10 292 0.0 0.0 0.00 0.00 0.00 88 1005.7
20260505210403 10 270 0.0 0.0 0.00 0.00 0.00 88 1005.7
20260505205904 11 270 0.0 0.0 0.00 0.00 0.00 88 1005.7
20260505205404 11 270 0.0 0.0 0.00 0.00 0.00 88 1005.7
20260505204904 11 286 0.0 0.0 0.00 0.00 0.00 88 1005.7
20260505204404 11 292 0.0 0.0 0.00 0.00 0.00 88 1005.7
20260505203904 11 270 0.0 0.0 0.00 0.00 0.00 88 1005.4
20260505203404 11 270 0.0 0.0 0.00 0.00 0.00 88 1005.4
20260505202904 11 270 1.6 1.6 0.00 0.00 0.00 87 1005.4
20260505202404 11 292 0.0 0.0 0.00 0.00 0.00 87 1005.4
20260505201904 11 270 0.0 0.0 0.00 0.00 0.00 87 1005.4
20260505201404 11 270 0.0 0.0 0.00 0.00 0.00 87 1005.4
20260505200404 12 258 0.0 0.0 0.00 0.00 0.00 86 1005.4
20260505195404 12 270 0.0 0.0 0.00 0.00 0.00 85 1005.4
20260505194903 12 218 0.0 0.0 0.00 0.00 0.00 84 1005.4
20260505194404 12 248 0.0 1.6 0.00 0.00 0.00 83 1005.4
20260505193904 12 270 0.0 1.6 0.00 0.00 0.00 83 1005.4
20260505192904 13 270 0.0 11.3 0.00 0.00 0.00 82 1005.4
20260505192404 13 225 4.8 11.3 0.00 0.00 0.00 81 1005.4
20260505191404 13 292 1.6 3.2 0.00 0.00 0.00 79 1005.4
20260505190904 14 248 4.8 4.8 0.00 0.00 0.00 79 1005.4
20260505190404 14 278 3.2 4.8 0.00 0.00 0.00 78 1005.4
20260505185905 14 292 0.0 0.0 0.00 0.00 0.00 78 1005.4
20260505184904 15 223 0.0 0.0 0.00 0.00 0.00 77 1005.4
20260505184404 14 270 0.0 4.8 0.00 0.00 0.00 78 1005.4
20260505183904 14 270 4.8 4.8 0.00 0.00 0.00 78 1005.4
20260505183404 14 270 6.4 16.1 0.00 0.00 0.00 78 1005.4
20260505182904 14 271 9.7 16.1 0.00 0.00 0.00 78 1005.4
20260505182404 14 270 4.8 9.7 0.00 0.00 0.00 77 1005.4
20260505181904 14 292 0.0 4.8 0.00 0.00 0.00 78 1005.4
20260505181404 15 292 1.6 4.8 0.00 0.00 0.00 77 1005.4
20260505180404 15 233 6.4 8.0 0.00 0.00 0.00 76 1005.4
20260505175904 15 248 0.0 0.0 0.00 0.00 0.00 75 1005.4
20260505175404 15 292 4.8 9.7 0.00 0.00 0.00 75 1005.0
20260505174904 15 267 4.8 4.8 0.00 0.00 0.00 75 1005.0
20260505174404 15 270 0.0 1.6 0.00 0.00 0.00 75 1005.4
20260505173904 15 248 0.0 0.0 0.00 0.00 0.00 75 1005.0
20260505173404 15 281 8.0 9.7 0.00 0.00 0.00 74 1005.0
20260505172404 15 248 9.7 12.9 0.00 0.00 0.00 73 1004.7
20260505171904 15 255 0.0 0.0 0.00 0.00 0.00 73 1004.7
20260505171403 15 225 1.6 3.2 0.00 0.00 0.00 73 1004.7
20260505170904 15 248 0.0 0.0 0.00 0.00 0.00 72 1004.7
20260505170403 16 238 3.2 14.5 0.00 0.00 0.00 72 1004.7
20260505165904 16 270 11.3 14.5 0.00 0.00 0.00 71 1004.7
20260505165404 16 292 8.0 9.7 0.00 0.00 0.00 70 1004.7
20260505164904 16 261 9.7 12.9 0.00 0.00 0.00 68 1004.7
20260505164404 17 270 4.8 8.0 0.00 0.00 0.00 67 1004.4
20260505163904 17 248 9.7 14.5 0.00 0.00 0.00 65 1004.4
20260505163403 18 282 22.5 24.1 0.00 0.00 0.00 64 1004.4
20260505162903 18 270 8.0 12.9 0.00 0.00 0.00 63 1004.4
20260505162404 18 270 1.6 16.1 0.00 0.00 0.00 63 1004.7
20260505161904 18 240 11.3 16.1 0.00 0.00 0.00 62 1004.7
20260505160904 19 315 17.7 19.3 0.00 0.00 0.00 62 1004.7
20260505160404 19 305 11.3 29.0 0.00 0.00 0.00 62 1004.4
20260505152904 21 292 4.8 8.0 0.00 0.00 0.00 58 1003.7
20260505152404 21 248 1.6 9.7 0.00 0.00 0.00 58 1003.3
20260505151904 21 283 8.0 9.7 0.00 0.00 0.00 59 1003.3
20260505150904 21 248 3.2 8.0 0.00 0.00 0.00 58 1003.3
20260505140404 20 224 22.5 24.1 0.00 0.00 0.00 61 1002.7
20260505124904 18 225 1.6 16.1 0.00 0.00 0.00 62 1002.3
20260505124404 18 270 8.0 11.3 0.00 0.00 0.00 61 1002.3
20260505123903 18 270 1.6 9.7 0.00 0.00 0.00 61 1002.3
20260505123404 18 227 0.0 9.7 0.00 0.00 0.00 61 1002.0
20260505122904 18 270 6.4 16.1 0.00 0.00 0.00 60 1002.0
20260505122404 18 225 1.6 1.6 0.00 0.00 0.00 60 1002.0
20260505121904 18 202 0.0 9.7 0.00 0.00 0.00 60 1002.0
20260505121404 18 225 8.0 9.7 0.00 0.00 0.00 60 1002.0
20260505120903 18 225 8.0 14.5 0.00 0.00 0.00 60 1001.6
20260505120404 18 202 8.0 14.5 0.00 0.00 0.00 60 1001.6
20260505115903 18 225 8.0 9.7 0.00 0.00 0.00 60 1001.6
20260505115404 18 180 0.0 16.1 0.00 0.00 0.00 60 1001.6
20260505114904 18 260 6.4 20.9 0.00 0.00 0.00 60 1001.6
20260505114403 18 270 19.3 20.9 0.00 0.00 0.00 59 1001.6
20260505112904 18 248 1.6 9.7 0.00 0.00 0.00 59 1001.6
20260505112404 18 248 3.2 9.7 0.00 0.00 0.00 59 1001.6
20260505111904 18 220 1.6 16.1 0.00 0.00 0.00 59 1001.6
20260505111404 18 225 8.0 11.3 0.00 0.00 0.00 60 1001.6
20260505110404 18 278 14.5 19.3 0.00 0.00 0.00 61 1001.3
20260505101904 19 244 1.6 12.9 0.00 0.00 0.00 60 1001.0
20260505100404 19 202 12.9 12.9 0.00 0.00 0.00 61 1000.6
20260505095903 19 225 3.2 8.0 0.00 0.00 0.00 61 1000.6
20260505095404 19 203 1.6 4.8 0.00 0.00 0.00 61 1000.6
20260505094903 18 240 16.1 16.1 0.00 0.00 0.00 61 1000.4
20260505094404 18 225 6.4 9.7 0.00 0.00 0.00 61 1000.3
20260505093904 18 248 6.4 9.7 0.00 0.00 0.00 61 1000.0
20260505092904 18 248 9.7 11.3 0.00 0.00 0.00 61 1000.0
20260505092404 18 229 9.7 11.3 0.00 0.00 0.00 61 1000.0
20260505091904 18 225 1.6 9.7 0.00 0.00 0.00 62 1000.0
20260505091404 18 202 6.4 11.3 0.00 0.00 0.00 63 1000.0
20260505090904 18 248 1.6 9.7 0.00 0.00 0.00 64 1000.0
20260505090403 17 257 9.7 9.7 0.00 0.00 0.00 65 1000.0
20260505085904 17 202 0.0 0.0 0.00 0.00 0.00 65 1000.0
20260505085404 17 244 0.0 0.0 0.00 0.00 0.00 64 1000.0
20260505084904 17 220 0.0 0.0 0.00 0.00 0.00 64 1000.0
20260505084404 17 225 0.0 0.0 0.00 0.00 0.00 63 1000.0
20260505083904 18 292 0.0 0.0 0.00 0.00 0.00 63 1000.0
20260505083404 18 270 0.0 20.9 0.00 0.00 0.00 62 1000.0
20260505082904 18 248 11.3 20.9 0.00 0.00 0.00 62 1000.0
20260505082404 18 269 3.2 9.7 0.00 0.00 0.00 61 1000.1
20260505081403 19 292 4.8 8.0 0.00 0.00 0.00 59 1000.0